Home > Weather > Hialeah > Past weeks

Flag for USA Past Weather in Hialeah, Florida, USA — Yesterday and Last 2 Weeks

Now
80 °F

Clear.


Feels Like: 84 °F
Forecast: 77 / 88 °F
Wind: 3 mph from Southeast

Location: Opa Locka Airport

Current Time: Jun 28, 2016 at 11:54:15 PM

Latest Report: Jun 28, 2016 at 10:53 PM


Visibility: 10 mi

Pressure: 30.03 "Hg

Humidity: 79%

Dew Point: 73 °F

Location of HialeahLocation

Past Weather in Hialeah — Graph

°F

Hialeah Temperature Yesterday

Maximum temperature yesterday: 90 °F (at 1:53 PM)
Minimum temperature yesterday: 78 °F (at 9:53 PM)
Average temperature yesterday: 83 °F

High & Low Weather Summary for the Past Weeks

 TemperatureHumidityPressure
High96 °F (Jun 18, 4:53 PM)100% (Jun 22, 6:53 AM)30.15 "Hg (Jun 22, 6:53 AM)
Low72 °F (Jun 21, 1:56 PM)43% (Jun 18, 4:53 PM)29.95 "Hg (Jun 17, 7:53 PM)
Average83 °F73%30.06 "Hg
* Reported Jun 13 9:53 PM — Jun 28 9:53 PM, Hialeah, Weather by CustomWeather, © 2016

Note: Actual official high and low records may vary slightly from our data, if they occured in-between our weather recording intervals... More about our weather records

Advertising

Hialeah Weather History for the Previous 24 Hours

Scroll right to see more
 ConditionsComfort  
Time TempWeatherWind HumidityBarometerVisibility
9:53 PM
Tue, Jun 28
81 °FPassing clouds.3 mph77%30.02 "Hg10 mi
8:53 PM82 °FPassing clouds.8 mph72%29.99 "Hg10 mi
7:53 PM84 °FSunny.8 mph67%29.98 "Hg10 mi
6:53 PM85 °FPartly sunny.9 mph65%29.98 "Hg10 mi
5:53 PM86 °FSunny.7 mph63%29.97 "Hg10 mi
4:53 PM87 °FPartly sunny.8 mph63%29.98 "Hg10 mi
3:53 PM87 °FScattered clouds.7 mph61%29.98 "Hg10 mi
2:53 PM85 °FSunny.6 mph65%30.01 "Hg10 mi
1:53 PM84 °FThundershowers. Overcast.7 mph70%30.03 "Hg10 mi
12:53 PM77 °FLight rain. Overcast.9 mph85%30.05 "Hg10 mi
11:53 AM84 °FPartly sunny.8 mph65%30.04 "Hg10 mi
10:53 AM85 °FScattered clouds.No wind63%30.04 "Hg10 mi
9:53 AM86 °FSunny.3 mph63%30.04 "Hg10 mi
8:53 AM85 °FSunny.3 mph70%30.04 "Hg10 mi
7:53 AM81 °FSunny.No wind79%30.03 "Hg10 mi
6:53 AM78 °FClear.No wind87%30.02 "Hg10 mi
5:53 AM78 °FPassing clouds.No wind87%30.01 "Hg10 mi
4:53 AM78 °FClear.6 mph84%30.00 "Hg10 mi
3:53 AM78 °FClear.No wind82%30.01 "Hg10 mi
2:53 AM77 °FClear.6 mph85%30.02 "Hg10 mi
1:53 AM79 °FPassing clouds.6 mph79%30.03 "Hg10 mi
12:53 AM79 °FPassing clouds.3 mph79%30.03 "Hg10 mi
11:53 PM
Mon, Jun 27
78 °FClear.6 mph82%30.03 "Hg10 mi
Weather by CustomWeather, © 2016

See weather overviewHow to use our weather pages